Location: ????
(30.1475°N, 31.1342°E)
Time: 08:03:48
(UTC+00:00)

Meteor 1-14 Rocket - Pass Details

Date: 31 March 2023
Orbit: 834 x 918 km, 81.3° (Epoch: 03 June)

Event Time Altitude Azimuth Distance (km) Brightness Sun altitude
Rises 00:16:33 0° 18° (NNE) 3,391 8.0 -42.8°
Reaches altitude 10° 00:20:33 10° 47° (NE) 2,462 7.2 -42.1°
Maximum altitude 00:22:54 13° 72° (ENE) 2,280 7.0 -41.7°
Drops below altitude 10° 00:25:17 10° 97° (E) 2,475 7.0 -41.3°
Sets 00:29:17 0° 125° (SE) 3,424 7.5 -40.6°
